Find STARLINK-37367

NORAD ID: 70604 Constellation: starlink operational
LEOCIRCULAR

Live-Position

3D-Globus wird geladen...

Über STARLINK-37367

Beschreibung wird geladen...

Nächste Überflüge

Passes for default location (London). Set your location on the main map for personalized predictions.

Höhenverlauf

Loading altitude history...

Zweizeiliger Elementsatz

1 70604C 26099W 26122.84979167 .00078850 00000+0 93663-4 0 1223
2 70604 53.1636 22.7692 0006004 287.4857 311.3732 16.07660443 10
Epoch: 2. Mai 2026 • Age: 31 hours